Temperature
10 10 11 11 11 12 12 12 12 11 11 12 12 12 11 11 11 11 11 11 10 10 10 10 10 10 9 9 9 9 9 8 8 8 8 8 8 7 7 7 7 6 6
10 10 10 11 11 11 11 12 11 11 11 11 11 11 11 11 11 11 11 11 11 10 10 10 10 10 9 9 9 9 9 8 8 8 8 8 7 7 7 6 6 6 6
9 10 10 10 11 11 11 11 11 11 11 11 11 11 11 11 11 11 11 11 11 11 10 10 10 10 9 9 9 9 9 8 8 8 8 7 7 7 6 6 6 6 6
8 9 10 10 10 11 11 11 11 11 11 11 11 11 11 11 11 11 11 11 11 10 10 10 10 10 9 9 9 9 9 8 8 8 7 7 7 6 6 6 6 6 5
8 8 9 10 10 10 10 10 11 11 11 11 11 11 11 11 11 11 11 10 10 10 10 9 9 9 9 9 9 9 8 8 8 7 7 7 6 6 6 5 5 5 5
7 8 8 9 9 10 10 10 10 10 10 11 10 10 10 10 11 11 10 10 10 10 9 9 9 9 9 9 8 8 8 8 7 7 7 6 6 6 5 5 4 4 4
7 7 8 8 9 9 9 9 10 10 10 10 10 10 10 10 10 10 10 10 9 9 9 9 9 9 9 8 8 8 8 7 7 7 6 6 6 5 5 4 4 3 3
6 7 7 8 8 8 9 9 10 10 10 10 10 10 10 10 10 10 10 9 9 9 9 9 9 9 9 8 8 8 7 7 7 6 6 6 5 5 4 4 3 3 3
5 6 6 7 8 8 8 9 9 9 9 10 10 10 10 10 10 10 9 9 9 9 9 9 8 8 8 8 8 7 7 7 6 6 6 5 5 4 4 3 3 3 2
5 5 6 6 7 7 8 8 9 9 9 9 9 9 9 10 10 10 9 9 8 8 8 8 8 8 8 7 7 7 7 7 6 6 5 5 4 4 3 3 2 2 1
4 5 5 6 6 7 7 8 8 8 9 9 9 9 9 9 9 9 9 8 8 8 8 8 8 7 7 7 7 7 7 6 6 5 5 4 4 3 3 3 2 1 1
4 4 5 5 6 6 7 7 8 8 8 8 8 8 8 9 9 9 9 8 8 8 8 7 7 7 7 7 6 6 6 5 5 5 4 4 4 3 3 2 2 1 1
3 4 4 5 5 6 6 7 7 7 7 7 8 8 8 8 8 8 8 8 8 7 7 7 7 6 6 6 6 5 5 5 5 4 4 4 3 3 2 2 1 1 1
3 3 3 4 5 5 6 6 6 6 7 7 7 7 7 7 7 8 8 7 7 7 7 6 6 6 6 5 5 5 5 4 4 4 4 3 3 2 2 1 1 1 0
2 3 3 4 4 5 5 5 5 6 6 6 6 6 7 7 7 7 7 7 7 7 6 6 5 5 5 5 5 4 4 4 4 3 3 3 2 2 1 1 0 -0 -0
2 2 2 3 3 4 4 5 5 5 5 6 6 6 6 6 7 7 7 7 6 6 6 6 5 5 5 4 4 4 4 3 3 3 3 2 2 2 1 1 0 -0 -1
1 1 2 2 3 3 4 4 4 5 5 5 5 5 5 6 6 6 6 6 6 6 5 5 5 5 4 4 4 4 4 3 3 3 2 2 1 1 1 0 -0 -1 -1
0 1 1 2 2 2 3 3 4 4 4 4 4 5 5 5 5 5 5 5 5 5 5 5 5 5 4 4 4 3 3 3 3 2 2 1 1 1 0 -0 -1 -1 -2
0 0 0 1 1 2 2 3 3 3 3 4 4 4 4 4 4 4 4 5 5 5 4 5 4 4 4 4 3 3 3 3 2 2 2 1 1 0 0 -0 -1 -1 -2
-0 -0 0 0 1 1 2 2 2 3 3 3 3 3 3 3 3 4 4 4 4 4 4 4 4 4 3 3 3 3 3 2 2 2 1 1 0 0 -0 -1 -1 -1 -2
-1 -1 -0 -0 0 0 1 1 2 2 2 2 3 3 3 3 3 3 3 3 3 4 3 3 3 3 3 3 2 2 2 2 2 1 1 1 0 -0 -0 -1 -1 -2 -2
-1 -1 -1 -1 -0 0 0 1 1 1 2 2 2 2 3 3 3 3 3 3 3 3 3 3 3 3 2 2 2 2 2 2 1 1 1 0 -0 -0 -1 -1 -2 -2 -2
-2 -2 -1 -1 -1 -0 0 0 1 1 1 1 2 2 2 2 2 2 2 2 2 2 2 2 2 2 2 2 2 2 2 1 1 1 0 0 -0 -1 -1 -1 -2 -2 -3
-2 -2 -2 -1 -1 -1 -0 -0 -0 0 1 1 1 1 1 1 2 2 2 2 2 2 2 2 2 2 2 1 1 1 1 1 1 0 -0 -0 -1 -1 -1 -2 -2 -2 -3
-3 -2 -2 -2 -1 -1 -1 -1 -0 -0 0 0 0 1 1 1 1 1 1 1 1 1 1 1 1 1 1 1 1 1 1 0 0 -0 -0 -1 -1 -1 -2 -2 -2 -3 -3
-3 -3 -2 -2 -2 -2 -1 -1 -1 -0 -0 -0 -0 0 0 1 1 1 1 1 1 1 1 1 1 1 0 0 0 0 0 -0 -0 -1 -1 -1 -1 -2 -2 -2 -3 -3 -3
Wind_Speed
5 6 6 7 10 11 10 11 12 11 13 15 16 15 15 14 14 13 12 12 12 10 9 10 10 8 6 6 5 5 5 5 5 4 1 1 2 2 1 2 4 4 5
4 5 5 6 8 10 10 11 12 12 12 14 14 15 15 14 14 14 14 13 13 12 12 11 10 8 8 7 6 6 6 5 5 5 2 2 2 2 1 2 2 3 4
4 4 5 5 6 9 9 10 11 11 12 13 13 14 14 14 14 13 13 13 13 12 12 12 11 10 10 7 7 7 6 5 4 4 3 2 1 0 1 2 2 3 4
4 4 5 6 6 7 8 8 9 10 11 12 13 13 13 13 13 13 13 12 11 10 10 10 11 11 10 9 8 7 6 5 4 3 3 2 1 0 0 2 3 3 4
4 3 4 4 5 5 6 8 9 8 9 9 11 12 12 11 11 12 12 11 11 10 8 9 9 11 11 10 7 7 7 5 4 4 3 2 2 1 1 1 2 3 3
5 4 3 3 3 4 5 7 8 8 8 8 9 12 12 10 13 15 13 10 10 10 9 8 8 9 11 11 11 10 9 7 6 5 4 4 4 3 1 1 1 2 3
5 4 3 2 2 3 5 6 8 8 8 8 9 10 11 12 15 16 15 11 10 10 9 8 7 7 9 7 8 8 7 7 8 6 5 5 4 3 3 2 2 2 3
6 5 4 3 2 3 4 6 7 7 8 8 9 10 10 11 15 16 16 11 9 9 9 9 9 8 8 9 7 6 4 3 4 4 4 3 3 3 3 3 2 2 2
6 5 5 4 3 3 4 5 6 6 7 7 8 9 10 11 15 17 16 10 8 9 8 8 9 9 11 13 9 8 6 3 4 7 7 6 6 5 3 2 1 1 2
6 6 5 4 4 4 4 4 4 5 6 6 7 8 9 10 15 18 17 9 9 8 7 8 10 11 13 14 10 9 8 6 6 6 5 4 3 3 3 2 2 1 1
6 6 6 5 4 4 4 4 4 4 5 6 6 6 8 9 14 18 18 10 9 8 8 7 7 13 14 13 10 8 9 9 7 6 5 3 2 1 1 1 1 2 1
6 6 6 5 4 3 3 3 4 4 5 5 6 6 5 7 10 15 18 14 12 9 8 7 8 14 14 12 8 9 12 10 6 5 4 3 2 1 1 0 1 1 0
6 6 6 6 4 3 3 4 4 4 4 5 5 5 5 5 7 12 16 15 13 8 7 10 12 14 12 9 11 13 11 6 6 5 4 3 2 2 2 1 2 3 3
6 6 6 5 4 3 2 3 4 4 4 4 5 5 5 5 5 7 8 9 10 9 8 11 14 13 9 10 9 7 5 5 5 5 4 3 3 2 2 1 0 1 1
6 6 6 4 4 2 2 3 4 4 6 6 5 5 6 6 7 9 9 8 8 9 10 7 6 7 6 5 5 5 4 5 4 4 4 4 3 2 1 1 1 1 1
6 6 4 4 3 1 1 2 2 3 5 6 6 6 5 6 10 11 11 12 14 16 11 8 8 8 7 7 6 5 4 4 4 4 4 4 4 3 2 1 1 1 0
6 6 4 4 2 2 1 1 1 1 1 4 5 6 6 9 11 12 12 14 16 15 8 8 8 8 7 7 6 6 4 4 4 4 4 4 3 3 2 1 1 0 1
5 6 5 3 2 2 2 2 3 3 2 1 3 7 9 10 11 12 14 12 9 7 6 8 8 8 7 7 7 6 5 5 4 4 4 4 3 3 3 2 1 0 0
5 4 3 3 2 2 2 2 3 3 3 3 2 4 7 10 12 13 12 7 8 7 6 6 7 7 7 7 7 6 6 6 5 4 4 4 3 3 2 2 2 1 1
4 5 5 3 2 2 2 2 3 3 4 4 4 4 5 5 6 7 4 4 5 6 6 6 6 7 7 7 7 6 6 5 5 4 4 4 3 3 3 3 2 1 0
3 4 5 3 2 2 2 3 3 4 4 4 4 5 8 6 6 6 5 5 5 6 6 6 6 7 7 7 7 7 7 5 5 5 4 4 4 3 3 3 2 2 1
3 3 3 3 2 2 3 3 3 4 4 5 4 5 8 5 5 5 4 4 4 4 5 6 6 6 6 7 8 8 7 6 5 5 4 4 4 4 3 3 3 2 2
4 4 3 3 3 4 3 3 3 4 4 4 5 5 5 5 5 5 5 4 4 4 5 6 6 5 5 6 6 7 7 7 6 6 6 5 4 4 4 4 3 3 2
4 4 4 3 3 3 3 3 3 4 4 4 4 5 5 5 5 5 5 5 5 4 5 5 6 7 8 7 6 6 7 8 9 8 8 7 6 5 4 4 3 3 3
4 4 4 3 3 3 3 3 3 4 4 4 4 5 5 5 5 5 5 5 5 5 5 6 6 7 9 9 8 8 11 12 11 10 9 7 7 6 5 5 4 4 3
4 4 4 3 3 3 3 4 4 4 4 4 5 5 5 5 5 6 6 6 5 5 5 5 7 8 9 9 10 12 14 14 14 14 11 8 7 6 6 5 6 5 5
Wind_Direction
237 227 222 219 208 200 197 199 196 190 184 183 186 188 190 191 190 192 194 190 193 195 193 196 200 192 191 191 189 192 199 195 225 246 228 204 195 198 240 256 267 275 282
252 247 226 226 211 203 203 200 196 193 189 185 184 187 190 192 191 192 195 195 196 197 197 195 199 194 195 192 192 197 202 199 207 233 235 224 224 202 220 260 290 292 285
264 242 229 220 211 206 208 205 196 193 192 188 186 189 190 190 192 194 195 197 198 199 197 196 196 193 199 195 191 197 202 201 199 211 230 221 207 149 309 295 296 295 300
291 250 237 218 212 212 211 206 197 194 194 194 190 190 189 189 192 193 194 195 197 199 198 195 193 195 197 191 193 195 189 187 189 199 219 221 214 199 225 281 299 300 303
303 286 258 236 218 210 213 206 197 195 195 193 190 187 187 190 193 191 192 191 190 193 194 196 194 189 186 186 189 187 181 186 185 194 212 214 214 191 242 247 274 301 296
322 305 292 261 228 215 219 201 193 195 192 192 194 188 189 193 188 183 183 184 186 188 191 190 186 184 184 183 180 177 178 185 193 196 207 217 222 213 204 244 276 317 291
318 309 310 299 266 232 221 202 194 196 193 194 197 193 193 190 180 178 179 184 187 189 187 183 181 179 171 169 163 158 166 178 184 188 199 210 202 202 187 218 253 267 260
317 308 311 293 269 260 222 208 202 195 195 197 197 197 195 189 178 177 176 182 186 189 187 183 179 174 170 161 154 153 159 166 171 175 177 176 167 165 173 195 220 267 295
317 312 306 295 278 273 241 215 206 196 197 199 196 193 194 190 178 175 173 186 185 185 181 178 176 175 170 158 158 159 155 147 120 125 124 123 121 118 115 114 94 24 302
311 306 302 299 277 263 249 229 214 201 198 194 197 194 192 192 180 175 173 184 183 181 176 176 174 171 170 163 167 169 172 170 147 133 120 106 99 92 88 123 166 176 304
308 305 302 294 275 264 251 237 212 198 191 191 191 192 190 189 181 177 176 183 182 179 179 177 176 166 167 168 168 177 173 157 153 147 139 132 119 108 79 52 116 176 197
311 308 299 294 282 272 239 232 213 193 188 189 187 184 186 183 180 182 180 180 173 176 179 174 171 162 161 161 162 155 146 143 146 145 145 151 155 163 166 40 49 53 161
314 311 305 299 290 266 231 222 207 193 189 189 184 183 182 179 176 177 178 174 166 166 165 159 154 152 150 152 149 147 145 147 152 154 163 173 172 168 142 89 48 40 20
309 306 302 297 293 268 238 221 207 198 194 188 186 185 181 176 169 167 169 163 152 145 143 141 139 140 136 138 142 143 149 156 158 163 159 151 139 134 129 123 109 16 12
303 302 301 297 292 265 255 236 219 211 201 195 196 192 187 191 184 169 166 162 159 151 142 138 141 144 146 147 144 141 143 148 148 147 149 149 147 142 142 136 115 73 12
299 299 298 297 289 265 253 287 249 211 200 196 194 193 193 182 167 166 161 155 150 149 145 154 159 160 162 161 156 155 154 157 158 152 154 156 157 158 153 126 86 107 324
287 289 292 291 276 271 246 219 244 3 146 177 178 177 171 164 162 159 154 152 153 152 153 162 166 166 164 162 162 164 167 163 156 155 156 156 154 155 152 149 128 55 348
283 283 283 279 260 253 245 231 202 185 189 186 167 163 159 158 154 150 145 143 154 156 159 162 165 164 164 164 164 163 156 153 152 153 153 155 160 160 155 159 162 179 305
280 281 280 274 267 253 242 233 205 185 181 172 147 153 153 151 147 147 147 157 163 164 162 161 161 161 161 160 158 158 157 158 157 157 157 158 165 161 159 162 162 143 67
274 279 282 271 262 251 235 228 204 184 177 176 175 165 153 149 153 155 154 155 159 159 159 157 156 155 156 156 154 153 154 155 155 155 158 161 165 162 157 155 154 157 177
265 274 276 269 256 248 234 220 200 185 183 182 181 174 167 166 165 164 163 158 159 159 158 155 153 154 156 155 154 155 156 159 158 156 157 161 160 153 148 145 140 133 112
257 263 257 248 249 247 242 220 196 186 181 174 169 162 157 154 154 154 151 151 149 150 151 148 150 156 161 162 159 159 161 160 159 155 154 156 152 145 138 133 127 124 111
245 250 253 246 241 246 247 214 192 184 178 168 164 159 157 153 152 151 147 144 140 139 142 143 144 148 144 145 150 158 164 167 166 160 155 153 148 143 140 137 132 132 125
236 241 244 239 229 227 226 210 191 184 171 162 163 161 156 152 147 144 142 140 138 137 137 140 143 148 145 142 140 141 141 142 143 146 146 148 145 141 137 133 133 134 129
236 238 239 235 225 217 215 205 188 178 169 163 162 155 148 145 144 140 138 139 139 140 137 133 137 141 144 144 142 142 143 142 142 139 133 132 137 135 134 131 129 124 111
231 234 234 229 220 208 205 201 189 177 169 167 161 155 152 150 149 144 141 141 140 139 137 134 138 141 141 141 141 142 144 144 142 137 129 125 129 130 130 126 124 121 118
Height
1389 1391 1393 1396 1400 1404 1408 1413 1418 1421 1425 1430 1434 1439 1443 1447 1451 1455 1458 1462 1465 1468 1471 1474 1476 1479 1481 1483 1484 1485 1486 1487 1487 1487 1487 1486 1485 1484 1483 1481 1479 1477 1474
1385 1387 1389 1392 1395 1399 1403 1408 1412 1416 1420 1424 1429 1433 1437 1441 1445 1448 1452 1456 1459 1462 1465 1468 1470 1473 1475 1477 1479 1480 1481 1482 1482 1482 1482 1482 1481 1480 1479 1477 1475 1473 1470
1382 1383 1385 1387 1390 1394 1398 1402 1407 1410 1414 1419 1423 1427 1431 1435 1439 1443 1447 1450 1453 1456 1459 1461 1464 1467 1469 1471 1473 1474 1476 1477 1477 1477 1477 1477 1476 1475 1474 1473 1471 1468 1466
1379 1379 1381 1383 1386 1389 1393 1397 1401 1405 1409 1413 1417 1421 1425 1429 1433 1437 1441 1444 1447 1450 1453 1456 1458 1461 1463 1465 1467 1469 1470 1472 1472 1472 1472 1471 1471 1470 1469 1467 1465 1464 1461
1376 1376 1377 1380 1382 1384 1388 1392 1395 1399 1403 1407 1411 1415 1419 1423 1427 1431 1435 1438 1441 1445 1448 1450 1453 1455 1457 1460 1462 1463 1465 1466 1467 1467 1467 1466 1466 1465 1464 1462 1461 1459 1456
1372 1373 1375 1376 1378 1380 1383 1386 1390 1394 1398 1402 1405 1409 1413 1417 1420 1425 1429 1432 1436 1439 1442 1445 1447 1450 1452 1455 1456 1458 1460 1461 1461 1462 1462 1461 1461 1460 1460 1459 1457 1454 1452
1371 1371 1371 1373 1374 1377 1379 1382 1385 1388 1392 1396 1399 1403 1407 1411 1415 1419 1423 1427 1430 1433 1436 1439 1442 1444 1447 1449 1451 1453 1454 1456 1457 1458 1457 1456 1456 1456 1456 1455 1453 1451 1449
1368 1368 1368 1369 1371 1373 1375 1377 1380 1383 1387 1390 1394 1397 1401 1405 1409 1413 1417 1421 1425 1427 1430 1433 1436 1438 1441 1444 1446 1447 1449 1450 1451 1452 1452 1452 1452 1452 1452 1451 1450 1448 1446
1366 1366 1366 1366 1367 1368 1370 1373 1375 1378 1381 1385 1388 1391 1395 1399 1403 1407 1412 1415 1419 1422 1425 1428 1431 1433 1436 1438 1441 1442 1443 1445 1446 1447 1448 1448 1448 1448 1448 1447 1445 1443 1441
1364 1364 1363 1363 1364 1365 1367 1369 1371 1374 1377 1380 1383 1386 1390 1393 1397 1401 1406 1409 1413 1416 1419 1422 1425 1428 1431 1433 1435 1437 1438 1439 1441 1442 1443 1444 1444 1444 1444 1443 1442 1440 1438
1361 1361 1361 1361 1361 1362 1363 1365 1367 1370 1372 1375 1379 1382 1385 1388 1392 1396 1400 1403 1406 1410 1413 1416 1419 1423 1426 1428 1430 1432 1434 1435 1436 1438 1438 1439 1440 1440 1440 1439 1438 1437 1435
1358 1357 1357 1357 1357 1358 1360 1361 1363 1365 1368 1371 1374 1377 1380 1384 1387 1390 1394 1398 1401 1405 1407 1411 1414 1418 1421 1424 1426 1428 1430 1432 1432 1433 1434 1435 1435 1436 1436 1436 1435 1434 1433
1355 1354 1353 1353 1354 1354 1356 1357 1359 1361 1363 1366 1369 1372 1375 1379 1382 1385 1389 1393 1396 1400 1403 1407 1410 1414 1416 1419 1422 1424 1426 1427 1428 1429 1430 1431 1432 1433 1433 1433 1432 1431 1430
1351 1350 1350 1350 1350 1351 1352 1353 1355 1357 1359 1362 1364 1367 1370 1373 1376 1380 1383 1388 1392 1395 1399 1402 1406 1409 1412 1415 1417 1420 1422 1423 1425 1426 1427 1428 1429 1429 1429 1429 1429 1428 1427
1348 1347 1347 1347 1346 1347 1348 1350 1352 1354 1356 1358 1359 1362 1365 1368 1371 1375 1378 1382 1386 1390 1394 1397 1401 1404 1407 1410 1413 1415 1418 1420 1421 1422 1423 1424 1425 1425 1426 1426 1425 1424 1423
1344 1344 1343 1343 1343 1344 1345 1347 1348 1351 1353 1355 1357 1359 1361 1365 1368 1371 1374 1378 1382 1386 1390 1392 1395 1398 1402 1405 1408 1411 1413 1416 1418 1419 1420 1421 1422 1422 1423 1423 1422 1421 1420
1341 1340 1340 1339 1340 1340 1341 1343 1344 1346 1349 1351 1353 1355 1358 1361 1364 1367 1370 1373 1377 1381 1385 1387 1391 1394 1397 1401 1404 1407 1410 1412 1414 1416 1417 1418 1419 1419 1420 1420 1420 1419 1418
1337 1336 1336 1336 1336 1337 1338 1339 1340 1342 1344 1346 1349 1352 1354 1357 1360 1363 1366 1370 1373 1377 1380 1383 1386 1390 1394 1397 1401 1404 1407 1409 1411 1413 1414 1415 1416 1416 1417 1417 1417 1416 1416
1333 1332 1332 1332 1332 1333 1334 1335 1337 1339 1341 1343 1345 1348 1351 1354 1356 1359 1363 1366 1368 1372 1375 1379 1383 1386 1390 1394 1397 1400 1403 1406 1408 1409 1411 1412 1413 1414 1414 1414 1414 1414 1414
1328 1328 1328 1328 1329 1329 1330 1332 1333 1335 1337 1339 1341 1344 1347 1350 1352 1355 1359 1362 1365 1368 1372 1375 1379 1383 1387 1391 1394 1397 1400 1402 1404 1406 1408 1409 1410 1411 1411 1412 1412 1412 1411
1324 1324 1324 1325 1325 1326 1327 1328 1330 1331 1333 1336 1338 1341 1344 1347 1349 1352 1356 1359 1363 1366 1369 1373 1376 1380 1384 1388 1391 1394 1397 1399 1401 1403 1405 1406 1407 1408 1409 1410 1410 1410 1410
1320 1320 1320 1321 1322 1322 1323 1325 1326 1328 1330 1333 1335 1338 1342 1345 1347 1350 1353 1357 1360 1364 1367 1370 1373 1377 1381 1385 1388 1391 1393 1396 1398 1400 1402 1403 1405 1406 1407 1407 1408 1408 1408
1316 1316 1316 1317 1318 1319 1320 1321 1323 1325 1327 1329 1332 1335 1338 1341 1344 1347 1351 1354 1358 1361 1365 1368 1371 1375 1378 1382 1385 1388 1390 1393 1395 1397 1399 1401 1402 1403 1404 1405 1406 1406 1407
1311 1311 1312 1313 1313 1315 1316 1318 1320 1321 1323 1326 1329 1332 1335 1338 1341 1345 1348 1352 1356 1359 1362 1366 1369 1373 1376 1379 1382 1385 1388 1391 1393 1395 1397 1399 1400 1402 1403 1404 1404 1405 1406
1306 1307 1308 1309 1310 1311 1313 1314 1317 1319 1321 1323 1326 1329 1332 1335 1339 1342 1346 1350 1353 1357 1360 1364 1367 1371 1374 1377 1380 1382 1385 1388 1390 1393 1395 1397 1398 1400 1401 1402 1403 1405 1406
1302 1303 1304 1305 1306 1308 1310 1311 1314 1316 1318 1320 1323 1326 1329 1333 1337 1340 1344 1347 1351 1354 1358 1362 1365 1368 1372 1375 1378 1381 1383 1386 1388 1391 1393 1395 1397 1398 1400 1401 1403 1404 1405